CW5775 Weather Reports


time (UTC)temp
C
wind
direction
speed
KPH
gust
KPH
rain 1hr
cm
rain 24hr
cm
rain mn
cm
humidity
%
barometer
mb
20220627214337 24 296 0.0 0.0 0.00 0.00 1.09 92 1011.0
20220627213348 23 296 0.0 0.0 0.00 0.00 1.09 92 1010.9
20220627213036 23 296 0.0 0.0 0.00 0.00 1.09 92 1010.8
20220627212332 23 296 0.0 0.0 0.00 0.00 1.09 92 1010.9
20220627211554 23 296 0.0 0.0 0.00 0.00 1.09 92 1010.9
20220627211357 23 296 0.0 0.0 0.00 0.00 1.09 92 1011.0
20220627210345 23 296 0.0 0.0 0.00 0.00 1.09 92 1010.9
20220627210040 23 296 0.0 0.0 0.00 0.00 1.09 92 1010.7
20220627205336 23 296 0.0 0.0 0.00 0.00 1.07 92 1010.9
20220627204606 23 296 0.0 0.0 0.00 0.00 1.07 92 1010.4
20220627204358 23 296 0.0 0.0 0.00 0.00 1.07 92 1010.6
20220627203349 23 297 0.0 0.0 0.00 0.00 1.07 92 1010.5
20220627203059 23 296 0.0 0.0 0.00 0.00 1.07 92 1010.3
20220627202346 23 296 1.6 0.0 0.00 0.00 1.07 92 1010.5
20220627201531 23 187 1.6 0.0 0.00 0.00 1.07 92 1010.4
20220627201345 23 187 1.6 0.0 0.00 0.00 1.07 92 1010.6
20220627200338 23 291 1.6 0.0 0.00 0.00 1.07 92 1010.3
20220627200023 23 291 1.6 0.0 0.00 0.00 1.07 92 1010.2
20220627195334 23 295 3.2 0.0 0.00 0.00 1.07 92 1010.3
20220627194548 23 226 3.2 0.0 0.00 0.00 1.07 92 1010.0
20220627194338 23 235 3.2 0.0 0.00 0.00 1.07 92 1010.1
20220627193332 23 283 1.6 0.0 0.00 0.00 1.07 92 1010.5
20220627193047 22 253 1.6 0.0 0.00 0.00 1.07 91 1010.4
20220627192341 22 268 1.6 0.0 0.00 0.00 1.04 91 1010.5
20220627191605 22 260 0.0 0.0 0.00 0.00 1.02 91 1010.7
20220627191336 22 259 1.6 0.0 0.00 0.00 1.02 90 1010.9
20220627190333 22 260 0.0 0.0 0.00 0.00 0.97 90 1010.9
20220627190057 22 260 0.0 0.0 0.00 0.00 0.97 90 1010.7
20220627185342 22 260 1.6 0.0 0.00 0.00 0.97 89 1010.9
20220627184512 22 258 3.2 0.0 0.00 0.00 0.71 88 1011.0
20220627184337 23 257 3.2 0.0 0.00 0.00 0.71 88 1011.2
20220627183335 23 335 3.2 0.0 0.00 0.00 0.48 86 1011.3
20220627183014 23 315 3.2 0.0 0.00 0.00 0.48 85 1011.1
20220627182359 24 288 4.8 0.0 0.00 0.00 0.30 83 1011.3
20220627181537 25 311 1.6 0.0 0.00 0.00 0.15 82 1010.7
20220627181330 25 286 1.6 0.0 0.00 0.00 0.13 81 1010.9
20220627180341 25 203 1.6 0.0 0.00 0.00 0.13 80 1011.1
20220627180033 25 171 1.6 0.0 0.00 0.00 0.13 80 1010.9
20220627175334 26 250 1.6 0.0 0.00 0.00 0.13 81 1011.1
20220627174552 25 176 1.6 0.0 0.00 0.00 0.13 82 1011.2
20220627174341 26 168 1.6 0.0 0.00 0.00 0.13 81 1011.3
20220627173346 26 173 3.2 0.0 0.00 0.00 0.13 82 1011.3
20220627173041 25 184 1.6 0.0 0.00 0.00 0.13 82 1011.2
20220627172342 26 239 1.6 0.0 0.00 0.00 0.13 82 1011.3
20220627171506 25 187 1.6 0.0 0.00 0.00 0.13 83 1011.2
20220627171334 25 187 1.6 0.0 0.00 0.00 0.13 83 1011.4
20220627170352 25 226 1.6 0.0 0.00 0.00 0.13 85 1011.6
20220627170059 25 226 1.6 0.0 0.00 0.00 0.13 84 1011.4
20220627165339 25 184 3.2 0.0 0.00 0.00 0.13 82 1011.6
20220627164512 25 204 1.6 0.0 0.00 0.00 0.13 83 1011.5
20220627164333 25 175 1.6 0.0 0.00 0.00 0.13 83 1011.7
20220627163359 25 331 1.6 0.0 0.00 0.00 0.13 86 1011.8
20220627163007 25 181 1.6 0.0 0.00 0.00 0.13 87 1011.6
20220627162352 25 196 1.6 0.0 0.00 0.00 0.13 89 1011.8
20220627161535 25 184 1.6 0.0 0.00 0.00 0.13 88 1011.7
20220627161343 25 185 1.6 0.0 0.00 0.00 0.13 89 1011.9
20220627160332 24 184 0.0 0.0 0.00 0.00 0.13 89 1011.9
20220627160016 24 184 0.0 0.0 0.00 0.00 0.13 88 1011.8
20220627155352 24 184 1.6 0.0 0.00 0.00 0.13 86 1011.9
20220627154538 24 183 3.2 0.0 0.00 0.00 0.13 83 1011.8
20220627154343 25 189 3.2 0.0 0.00 0.00 0.13 82 1012.0
20220627153337 26 176 3.2 0.0 0.00 0.00 0.00 77 1011.9
20220627153038 26 169 3.2 0.0 0.00 0.00 0.00 76 1011.7
20220627152335 26 184 1.6 0.0 0.00 0.00 0.00 75 1011.9
20220627151601 26 210 1.6 0.0 0.00 0.00 0.00 74 1011.7
20220627151357 26 179 3.2 0.0 0.00 0.00 0.00 74 1011.8
20220627150342 26 182 4.8 0.0 0.00 0.00 0.00 73 1011.7
20220627150053 26 199 4.8 0.0 0.00 0.00 0.00 73 1011.5
20220627145333 27 155 3.2 0.0 0.00 0.00 0.00 71 1011.7
20220627144609 26 172 4.8 0.0 0.00 0.00 0.00 73 1011.6
20220627144352 26 183 4.8 0.0 0.00 0.00 0.00 73 1011.8
20220627143347 27 180 4.8 0.0 0.00 0.00 0.00 72 1011.8
20220627143102 26 177 4.8 0.0 0.00 0.00 0.00 72 1011.7
20220627142338 26 196 3.2 0.0 0.00 0.00 0.00 73 1011.8
20220627141512 27 182 3.2 0.0 0.00 0.00 0.00 72 1011.6
20220627141349 27 189 4.8 0.0 0.00 0.00 0.00 72 1011.8
20220627140356 27 177 3.2 0.0 0.00 0.00 0.00 73 1011.9
20220627140009 26 174 3.2 0.0 0.00 0.00 0.00 74 1011.7
20220627135347 26 187 3.2 0.0 0.00 0.00 0.00 74 1011.9
20220627134539 26 180 3.2 0.0 0.00 0.00 0.00 75 1011.7
20220627134336 26 180 3.2 0.0 0.00 0.00 0.00 75 1011.9
20220627133332 26 196 4.8 0.0 0.00 0.00 0.00 76 1012.0
20220627133030 26 183 4.8 0.0 0.00 0.00 0.00 76 1011.8
20220627132351 26 189 4.8 0.0 0.00 0.00 0.00 76 1012.0
20220627131549 25 184 3.2 0.0 0.00 0.00 0.00 76 1011.8
20220627131349 25 187 3.2 0.0 0.00 0.00 0.00 77 1012.0
20220627130339 25 210 3.2 0.0 0.00 0.00 0.00 78 1011.9
20220627130044 25 180 3.2 0.0 0.00 0.00 0.00 78 1011.8
20220627125332 25 179 3.2 0.0 0.00 0.00 0.00 79 1011.9
20220627124505 24 204 4.8 0.0 0.00 0.00 0.00 81 1011.8
20220627124357 24 189 4.8 0.0 0.00 0.00 0.00 81 1012.0
20220627123346 24 184 4.8 0.0 0.00 0.00 0.00 81 1012.0
20220627123100 23 176 4.8 0.0 0.00 0.00 0.00 82 1011.9
20220627122343 23 195 4.8 0.0 0.00 0.00 0.00 83 1012.0
20220627121519 23 183 3.2 0.0 0.00 0.00 0.00 84 1011.8
20220627121337 23 182 4.8 0.0 0.00 0.00 0.00 84 1012.0
20220627120348 23 170 4.8 0.0 0.00 0.00 0.00 84 1012.1
20220627120007 23 175 3.2 0.0 0.00 0.00 0.00 83 1011.9
20220627115344 23 198 3.2 0.0 0.00 0.00 0.00 82 1012.1
20220627114537 23 168 3.2 0.0 0.00 0.00 0.00 83 1011.9
20220627114343 23 185 3.2 0.0 0.00 0.00 0.00 83 1012.1
20220627113336 23 195 3.2 0.0 0.00 0.00 0.00 84 1012.0
20220627113032 22 187 3.2 0.0 0.00 0.00 0.00 84 1011.8
20220627112359 23 193 3.2 0.0 0.00 0.00 0.00 84 1012.0
20220627111551 22 163 3.2 0.0 0.00 0.00 0.00 85 1011.9
20220627111355 22 179 3.2 0.0 0.00 0.00 0.00 85 1012.1
20220627110330 22 184 3.2 0.0 0.00 0.00 0.00 85 1012.0
20220627110107 22 188 4.8 0.0 0.00 0.00 0.00 85 1011.8
20220627105345 22 170 4.8 0.0 0.00 0.00 0.00 85 1012.0
20220627104508 22 177 3.2 0.0 0.00 0.00 0.00 85 1011.8
20220627104335 22 176 3.2 0.0 0.00 0.00 0.00 85 1011.9
20220627103351 22 180 3.2 0.0 0.00 0.00 0.00 86 1012.0
20220627103109 22 182 3.2 0.0 0.00 0.00 0.00 85 1011.8
20220627102344 22 163 3.2 0.0 0.00 0.00 0.00 85 1012.0
20220627101516 22 175 3.2 0.0 0.00 0.00 0.00 85 1011.7
20220627101346 22 170 3.2 0.0 0.00 0.00 0.00 85 1011.9
20220627100339 22 180 3.2 0.0 0.00 0.00 0.00 85 1011.9
20220627100017 22 182 3.2 0.0 0.00 0.00 0.00 85 1011.7
20220627095353 22 173 3.2 0.0 0.00 0.00 0.00 85 1011.9
20220627094549 22 187 3.2 0.0 0.00 0.00 0.00 85 1011.7
20220627094351 22 183 3.2 0.0 0.00 0.00 0.00 85 1011.9
20220627093349 22 189 3.2 0.0 0.00 0.00 0.00 84 1011.9
20220627093109 22 182 3.2 0.0 0.00 0.00 0.00 84 1011.7
20220627092341 22 177 3.2 0.0 0.00 0.00 0.00 84 1011.9
20220627091509 22 165 3.2 0.0 0.00 0.00 0.00 84 1011.5
20220627091336 22 170 3.2 0.0 0.00 0.00 0.00 84 1011.7
20220627090332 22 184 3.2 0.0 0.00 0.00 0.00 83 1011.8
20220627090005 22 181 3.2 0.0 0.00 0.00 0.00 83 1011.6
20220627085329 22 151 3.2 0.0 0.00 0.00 0.00 83 1011.8
20220627084521 22 182 3.2 0.0 0.00 0.00 0.00 83 1011.7
20220627084343 22 196 3.2 0.0 0.00 0.00 0.00 83 1011.9
20220627083338 22 189 3.2 0.0 0.00 0.00 0.00 83 1011.9
20220627083029 22 161 3.2 0.0 0.00 0.00 0.00 83 1011.7
20220627082358 22 184 3.2 0.0 0.00 0.00 0.00 83 1011.9
20220627081548 22 183 3.2 0.0 0.00 0.00 0.00 83 1011.7
20220627081357 22 169 3.2 0.0 0.00 0.00 0.00 83 1011.9
20220627080328 22 179 3.2 0.0 0.00 0.00 0.00 83 1012.3
20220627080049 22 170 3.2 0.0 0.00 0.00 0.00 83 1012.1
20220627075342 22 182 3.2 0.0 0.00 0.00 0.00 83 1012.3
20220627074501 21 185 3.2 0.0 0.00 0.00 0.00 82 1012.3
20220627074334 22 166 3.2 0.0 0.00 0.00 0.00 82 1012.5
20220627073338 22 176 3.2 0.0 0.00 0.00 0.00 82 1012.9
20220627073102 21 170 3.2 0.0 0.00 0.00 0.00 82 1012.7
20220627072332 22 155 3.2 0.0 0.00 0.00 0.00 82 1012.9
20220627071525 21 176 3.2 0.0 0.00 0.00 0.00 82 1012.8
20220627071346 22 185 3.2 0.0 0.00 0.00 0.00 82 1013.0
20220627070338 22 181 3.2 0.0 0.00 0.00 0.00 81 1013.2
20220627070014 21 191 3.2 0.0 0.00 0.00 0.00 81 1013.0
20220627065343 22 180 3.2 0.0 0.00 0.00 0.00 81 1013.2
20220627064547 21 183 3.2 0.0 0.00 0.00 0.00 81 1013.2
20220627064335 22 180 3.2 0.0 0.00 0.00 0.00 81 1013.4
20220627063334 22 184 3.2 0.0 0.00 0.00 0.00 81 1013.5
20220627063041 21 189 3.2 0.0 0.00 0.00 0.00 81 1013.3
20220627062339 22 188 3.2 0.0 0.00 0.00 0.00 81 1013.5
20220627061601 21 189 3.2 0.0 0.00 0.00 0.00 81 1013.3
20220627061352 22 181 3.2 0.0 0.00 0.00 0.00 81 1013.5
20220627060342 22 168 3.2 0.0 0.00 0.00 0.00 80 1013.6
20220627060044 22 174 3.2 0.0 0.00 0.00 0.00 81 1013.3
20220627055335 22 165 3.2 0.0 0.00 0.00 0.00 80 1013.6
20220627054608 22 169 3.2 0.0 0.00 0.00 0.00 80 1013.5
20220627054402 22 170 3.2 0.0 0.00 0.00 0.00 80 1013.7
20220627053355 22 162 3.2 0.0 0.00 0.00 0.00 80 1013.7
20220627053059 22 154 3.2 0.0 0.00 0.00 0.00 80 1013.5
20220627052347 22 183 3.2 0.0 0.00 0.00 0.00 80 1013.7
20220627051515 22 160 3.2 0.0 0.00 0.00 0.00 79 1013.8
20220627051338 22 179 3.2 0.0 0.00 0.00 0.00 79 1014.0
20220627050349 22 187 3.2 0.0 0.00 0.00 0.00 79 1014.0
20220627050107 22 182 3.2 0.0 0.00 0.00 0.00 79 1013.8
20220627045341 22 200 3.2 0.0 0.00 0.00 0.00 78 1014.0
20220627044522 22 182 3.2 0.0 0.00 0.00 0.00 78 1013.8
20220627044332 22 180 3.2 0.0 0.00 0.00 0.00 78 1014.0
20220627043347 22 182 3.2 0.0 0.00 0.00 0.00 77 1014.0
20220627043013 22 196 3.2 0.0 0.00 0.00 0.00 77 1013.8
20220627042352 22 180 3.2 0.0 0.00 0.00 0.00 76 1014.0
20220627041543 22 156 3.2 0.0 0.00 0.00 0.00 76 1013.8
20220627041343 22 170 3.2 0.0 0.00 0.00 0.00 75 1014.0
20220627040333 22 181 3.2 0.0 0.00 0.00 0.00 75 1014.0
20220627040019 22 180 3.2 0.0 0.00 0.00 0.00 74 1013.8
20220627035351 22 180 3.2 0.0 0.00 0.00 0.00 74 1014.0
20220627034543 22 177 3.2 0.0 0.00 0.00 0.00 74 1013.9
20220627034344 23 186 3.2 0.0 0.00 0.00 0.00 73 1014.1
20220627033335 23 180 3.2 0.0 0.00 0.00 0.00 73 1014.1
20220627033036 22 177 3.2 0.0 0.00 0.00 0.00 73 1013.9
20220627032347 23 186 3.2 0.0 0.00 0.00 0.00 73 1014.1
20220627031603 23 191 3.2 0.0 0.00 0.00 0.00 73 1013.9
20220627031349 23 168 3.2 0.0 0.00 0.00 0.00 72 1014.1
20220627030341 23 184 3.2 0.0 0.00 0.00 0.00 72 1014.1
20220627030053 23 179 3.2 0.0 0.00 0.00 0.00 72 1013.9
20220627025344 23 194 3.2 0.0 0.00 0.00 0.00 72 1014.1
20220627024608 23 168 3.2 0.0 0.00 0.00 0.00 71 1013.9
20220627024337 23 169 3.2 0.0 0.00 0.00 0.00 71 1014.1
20220627023340 23 171 3.2 0.0 0.00 0.00 0.00 70 1014.2
20220627023104 23 181 3.2 0.0 0.00 0.00 0.00 70 1014.0
20220627022333 23 189 3.2 0.0 0.00 0.00 0.00 69 1014.2
20220627021527 23 186 3.2 0.0 0.00 0.00 0.00 69 1014.1
20220627021341 24 183 3.2 0.0 0.00 0.00 0.00 69 1014.3
20220627020334 24 187 1.6 0.0 0.00 0.00 0.00 68 1014.1
20220627020013 24 187 1.6 0.0 0.00 0.00 0.00 68 1013.9
20220627015346 24 172 1.6 0.0 0.00 0.00 0.00 68 1014.1
20220627014545 24 177 1.6 0.0 0.00 0.00 0.00 68 1013.9
20220627014335 25 189 1.6 0.0 0.00 0.00 0.00 67 1014.1
20220627013330 25 163 1.6 0.0 0.00 0.00 0.00 67 1014.0
20220627013052 24 170 1.6 0.0 0.00 0.00 0.00 67 1013.8
20220627012326 25 177 3.2 0.0 0.00 0.00 0.00 66 1014.0
20220627011505 25 177 3.2 0.0 0.00 0.00 0.00 66 1013.7
20220627011338 25 177 3.2 0.0 0.00 0.00 0.00 66 1013.9
20220627010339 25 160 3.2 0.0 0.00 0.00 0.00 65 1013.6
20220627010100 25 173 3.2 0.0 0.00 0.00 0.00 65 1013.4
20220627005331 25 182 1.6 0.0 0.00 0.00 0.00 65 1013.6
20220627004510 25 156 3.2 0.0 0.00 0.00 0.00 65 1013.6
20220627004342 26 156 3.2 0.0 0.00 0.00 0.00 65 1013.8
20220627003337 26 184 3.2 0.0 0.00 0.00 0.00 64 1013.9
20220627003007 26 177 3.2 0.0 0.00 0.00 0.00 64 1013.7
20220627002341 26 168 3.2 0.0 0.00 0.00 0.00 64 1013.9
20220627001537 26 198 3.2 0.0 0.00 0.00 0.00 63 1013.3
20220627001340 26 175 3.2 0.0 0.00 0.00 0.00 63 1013.5
20220627000342 27 185 3.2 0.0 0.00 0.00 0.00 61 1013.5
20220627000028 26 178 3.2 0.0 0.00 0.00 0.00 61 1013.4
20220626235329 27 178 3.2 0.0 0.00 0.00 0.00 60 1013.5
20220626234550 27 194 3.2 0.0 0.00 0.00 0.00 60 1013.4
20220626234329 27 158 3.2 0.0 0.00 0.00 0.00 59 1013.5
20220626233335 27 158 3.2 0.0 0.00 0.00 0.00 58 1013.5
20220626233055 27 159 3.2 0.0 0.00 0.00 0.00 58 1013.3
20220626232331 28 173 3.2 0.0 0.00 0.00 0.00 58 1013.5
20220626231521 28 182 3.2 0.0 0.00 0.00 0.00 57 1013.3
20220626231333 28 181 3.2 0.0 0.00 0.00 0.00 56 1013.5
20220626230358 28 161 3.2 0.0 0.00 0.00 0.00 55 1013.5
20220626230012 28 153 3.2 0.0 0.00 0.00 0.00 55 1013.3
20220626225350 29 213 3.2 0.0 0.00 0.00 0.00 56 1013.5
20220626224538 29 178 4.8 0.0 0.00 0.00 0.00 55 1013.3
20220626224340 29 175 4.8 0.0 0.00 0.00 0.00 55 1013.5
20220626223349 30 179 4.8 0.0 0.00 0.00 0.00 54 1013.5
20220626223030 30 168 4.8 0.0 0.00 0.00 0.00 54 1013.3
20220626222353 30 187 4.8 0.0 0.00 0.00 0.00 53 1013.5
20220626221556 30 177 3.2 0.0 0.00 0.00 0.00 52 1013.3
20220626221343 30 165 4.8 0.0 0.00 0.00 0.00 51 1013.5
20220626220332 31 170 3.2 0.0 0.00 0.00 0.00 50 1013.5
20220626220045 31 179 3.2 0.0 0.00 0.00 0.00 50 1013.3
20220626215348 31 165 4.8 0.0 0.00 0.00 0.00 50 1013.5
20220626214610 31 190 4.8 0.0 0.00 0.00 0.00 49 1013.3